EW6956 Weather Reports


time (UTC)temp
C
wind
direction
speed
KPH
gust
KPH
rain 1hr
cm
rain 24hr
cm
rain mn
cm
humidity
%
barometer
mb
20260505071504 17 149 0.0 0.0 0.00 0.03 0.00 58 1004.3
20260505070002 17 121 0.0 0.0 0.00 0.03 0.00 57 1004.6
20260505064605 17 128 0.0 0.0 0.00 0.03 0.00 56 1004.6
20260505063059 18 128 0.0 0.0 0.00 0.03 0.00 58 1004.8
20260505061557 18 128 0.0 0.0 0.00 0.03 0.00 58 1004.9
20260505060101 18 60 0.0 0.0 0.00 0.03 0.00 58 1005.0
20260505054601 18 207 0.0 0.0 0.00 0.03 0.00 58 1005.3
20260505053108 18 33 0.0 0.0 0.00 0.03 0.00 57 1005.5
20260505051550 18 162 0.0 0.0 0.00 0.03 0.00 55 1005.7
20260505041536 18 98 0.0 0.0 0.00 0.03 0.03 52 1006.0
20260505040031 18 98 0.0 0.0 0.00 0.03 0.03 52 1006.1
20260505034527 18 98 0.0 0.0 0.00 0.03 0.03 55 1006.3
20260505033022 19 97 0.0 0.0 0.00 0.03 0.03 55 1006.4
20260505031518 19 96 0.0 0.0 0.00 0.03 0.03 59 1006.3
20260505030013 19 60 0.0 0.0 0.00 0.03 0.03 60 1006.0
20260505024528 20 320 0.0 0.0 0.00 0.03 0.03 61 1006.0
20260505023004 20 319 0.0 0.0 0.00 0.03 0.03 61 1005.7
20260505021600 20 319 0.0 0.0 0.00 0.03 0.03 62 1005.6
20260505020056 21 316 0.0 0.0 0.00 0.03 0.03 62 1005.4
20260505014552 21 181 0.0 0.0 0.00 0.03 0.03 60 1005.2
20260505013047 22 268 0.0 0.0 0.00 0.03 0.03 58 1004.8
20260505011543 22 269 0.0 0.0 0.00 0.03 0.03 57 1004.8
20260505010042 22 327 0.0 0.0 0.00 0.03 0.03 59 1004.5
20260505004535 23 325 0.0 0.0 0.00 0.03 0.03 55 1004.2
20260505003029 23 175 0.0 4.8 0.00 0.03 0.03 53 1004.2
20260505001528 24 259 0.0 0.0 0.00 0.03 0.03 54 1004.3
20260505000030 24 200 0.0 6.4 0.00 0.03 0.03 51 1004.3
20260504234516 25 260 0.0 3.2 0.00 0.03 0.03 50 1004.4
20260504233017 25 197 0.0 11.3 0.00 0.03 0.03 49 1004.4
20260504231522 25 285 0.0 9.7 0.00 0.03 0.03 48 1004.6
20260504230003 26 209 0.0 1.6 0.00 0.03 0.03 48 1004.7
20260504224602 26 209 0.0 8.0 0.00 0.03 0.03 46 1004.7
20260504223055 26 173 0.0 9.7 0.00 0.03 0.03 44 1004.7
20260504221557 27 281 1.6 17.7 0.00 0.03 0.03 44 1004.6
20260504220046 27 194 0.0 9.7 0.00 0.03 0.03 43 1004.7
20260504214543 27 234 0.0 16.1 0.00 0.03 0.03 43 1004.7
20260504213037 27 229 0.0 0.0 0.00 0.03 0.03 44 1004.9
20260504211534 27 234 1.6 11.3 0.00 0.03 0.03 42 1004.9
20260504210034 27 258 0.0 6.4 0.00 0.03 0.03 45 1005.1
20260504204524 27 306 0.0 12.9 0.00 0.03 0.03 43 1005.3
20260504203025 27 216 0.0 6.4 0.00 0.03 0.03 43 1005.4
20260504201513 27 211 0.0 12.9 0.00 0.03 0.03 44 1005.5
20260504200009 27 104 0.0 9.7 0.00 0.03 0.03 48 1005.7
20260504194508 27 206 0.0 6.4 0.00 0.03 0.03 46 1005.9
20260504193101 26 96 0.0 16.1 0.00 0.03 0.03 45 1006.2
20260504191555 26 191 0.0 14.5 0.00 0.03 0.03 45 1006.3
20260504190117 26 234 0.0 6.4 0.00 0.03 0.03 45 1006.3
20260504184555 26 336 0.0 4.8 0.00 0.03 0.03 45 1006.3
20260504183042 26 240 0.0 11.3 0.00 0.03 0.03 46 1006.5
20260504181544 26 235 0.0 8.0 0.00 0.03 0.03 46 1006.5
20260504180050 26 153 0.0 12.9 0.00 0.03 0.03 45 1006.8
20260504174529 25 225 1.6 19.3 0.00 0.03 0.03 45 1007.1
20260504173025 26 216 0.0 9.7 0.00 0.03 0.03 45 1007.3
20260504171520 25 168 3.2 16.1 0.00 0.03 0.03 45 1007.4
20260504120109 12 183 0.0 0.0 0.00 0.00 0.00 1 1009.4
20260504081544 12 228 0.0 0.0 0.00 0.03 0.00 1 1010.2